VOYAGER:1:PRINTED,ON:,18-JUL-02:14:13:26:GROUP32
START_TIME,STOP_TIME,SECTOR,SCAN_DIR,E44FLUX,E44UNC,E45FLUX,E45UNC,E37FLUX,E37UNC,P31FLUX,P31UNC
1979-02-26 00:00:18.270 ,1979-02-26 00:00:41.840 ,4,1,7.08,0.700,0.373,0.152,-1.00,-1.00,1.545E-02,1.772E-03
1979-02-26 00:00:42.270 ,1979-02-26 00:01:05.840 ,5,1,9.99,0.832,0.435,0.164,-1.00,-1.00,1.707E-02,1.830E-03
1979-02-26 00:01:06.270 ,1979-02-26 00:01:29.840 ,6,1,8.19,0.754,0.373,0.152,-1.00,-1.00,1.904E-02,1.930E-03
1979-02-26 00:01:30.270 ,1979-02-26 00:01:53.840 ,7,1,9.65,0.817,0.373,0.152,-1.00,-1.00,1.939E-02,2.021E-03
1979-02-26 00:01:54.270 ,1979-02-26 00:02:35.840 ,8,1,9.72,0.632,0.249,9.394E-02,-1.00,-1.00,2.265E-02,1.603E-03
1979-02-26 00:02:35.900 ,1979-02-26 00:02:41.840 ,8,-1,9.76,1.60,0.497,0.352,-1.00,-1.00,1.789E-02,3.812E-03
1979-02-26 00:02:42.270 ,1979-02-26 00:03:05.840 ,7,-1,8.95,0.788,0.497,0.176,-1.00,-1.00,1.864E-02,1.911E-03
1979-02-26 00:03:06.270 ,1979-02-26 00:03:29.840 ,6,-1,10.4,0.849,0.249,0.124,-1.00,-1.00,2.256E-02,2.140E-03
1979-02-26 00:03:30.270 ,1979-02-26 00:03:53.840 ,5,-1,7.77,0.734,0.435,0.164,-1.00,-1.00,1.911E-02,1.970E-03
1979-02-26 00:03:54.270 ,1979-02-26 00:04:17.840 ,4,-1,7.91,0.740,0.311,0.139,-1.00,-1.00,1.789E-02,1.906E-03
1979-02-26 00:04:18.270 ,1979-02-26 00:04:41.840 ,3,-1,8.05,0.747,0.311,0.139,-1.00,-1.00,1.992E-02,2.011E-03
1979-02-26 00:04:42.270 ,1979-02-26 00:05:05.840 ,2,-1,9.37,0.805,0.124,8.790E-02,-1.00,-1.00,1.771E-02,1.931E-03
1979-02-26 00:05:05.900 ,1979-02-26 00:05:30.270 ,1,-1,12.2,1.52,0.332,0.166,-1.00,-1.00,2.205E-02,3.959E-03
1979-02-26 00:05:30.270 ,1979-02-26 00:05:53.840 ,1,1,8.81,0.781,0.373,0.152,-1.00,-1.00,2.119E-02,2.037E-03
1979-02-26 00:05:54.270 ,1979-02-26 00:06:17.840 ,2,1,6.89,0.710,0.559,0.186,-1.00,-1.00,1.829E-02,1.926E-03
1979-02-26 00:06:18.270 ,1979-02-26 00:06:41.840 ,3,1,7.62,0.746,0.559,0.186,-1.00,-1.00,1.962E-02,1.962E-03
1979-02-26 00:06:42.270 ,1979-02-26 00:07:05.840 ,4,1,6.73,0.683,0.559,0.186,-1.00,-1.00,2.073E-02,2.050E-03
1979-02-26 00:07:06.270 ,1979-02-26 00:07:29.840 ,5,1,9.02,0.791,0.124,8.790E-02,-1.00,-1.00,1.951E-02,1.991E-03
1979-02-26 00:07:30.270 ,1979-02-26 00:07:53.840 ,6,1,8.26,0.756,0.311,0.139,-1.00,-1.00,1.972E-02,1.999E-03
1979-02-26 00:07:54.270 ,1979-02-26 00:08:17.840 ,7,1,8.06,0.768,0.249,0.124,-1.00,-1.00,1.728E-02,1.907E-03
1979-02-26 00:08:18.270 ,1979-02-26 00:08:59.840 ,8,1,9.19,0.606,0.497,0.133,-1.00,-1.00,1.565E-02,1.421E-03
1979-02-26 00:08:59.900 ,1979-02-26 00:09:05.840 ,8,-1,11.3,1.73,0.249,0.249,-1.00,-1.00,2.348E-02,4.086E-03
1979-02-26 00:09:06.270 ,1979-02-26 00:09:29.840 ,7,-1,7.98,0.743,0.186,0.108,-1.00,-1.00,1.834E-02,1.966E-03
1979-02-26 00:09:30.270 ,1979-02-26 00:09:53.840 ,6,-1,8.47,0.766,0.373,0.152,-1.00,-1.00,2.541E-02,2.271E-03
1979-02-26 00:09:54.270 ,1979-02-26 00:10:17.840 ,5,-1,7.98,0.743,0.435,0.164,-1.00,-1.00,1.829E-02,1.926E-03
1979-02-26 00:10:18.270 ,1979-02-26 00:10:41.840 ,4,-1,6.52,0.691,0.311,0.139,-1.00,-1.00,1.609E-02,1.775E-03
1979-02-26 00:10:42.270 ,1979-02-26 00:11:05.840 ,3,-1,8.19,0.754,0.311,0.139,-1.00,-1.00,1.648E-02,1.798E-03
1979-02-26 00:11:06.270 ,1979-02-26 00:11:29.840 ,2,-1,7.84,0.738,0.124,8.790E-02,-1.00,-1.00,1.771E-02,1.931E-03
1979-02-26 00:11:29.900 ,1979-02-26 00:11:54.270 ,1,-1,8.29,1.25,0.912,0.275,-1.00,-1.00,2.220E-02,3.551E-03
1979-02-26 00:11:54.270 ,1979-02-26 00:12:17.840 ,1,1,8.33,0.760,0.559,0.186,-1.00,-1.00,2.375E-02,2.156E-03
1979-02-26 00:12:18.270 ,1979-02-26 00:12:41.840 ,2,1,9.62,0.863,0.166,0.117,-1.00,-1.00,2.211E-02,2.197E-03
1979-02-26 00:12:42.270 ,1979-02-26 00:13:05.840 ,3,1,8.20,0.774,0.435,0.164,-1.00,-1.00,2.276E-02,2.113E-03
1979-02-26 00:13:06.270 ,1979-02-26 00:13:29.840 ,4,1,7.08,0.700,0.186,0.108,-1.00,-1.00,2.002E-02,1.980E-03
1979-02-26 00:13:30.270 ,1979-02-26 00:13:53.840 ,5,1,8.61,0.772,0.186,0.108,-1.00,-1.00,2.159E-02,2.057E-03
1979-02-26 00:13:54.270 ,1979-02-26 00:14:17.840 ,6,1,7.84,0.738,0.311,0.139,-1.00,-1.00,2.114E-02,2.071E-03
1979-02-26 00:14:18.270 ,1979-02-26 00:14:41.840 ,7,1,8.81,0.781,0.373,0.152,-1.00,-1.00,2.453E-02,2.192E-03
1979-02-26 00:14:42.270 ,1979-02-26 00:15:23.840 ,8,1,8.47,0.581,0.213,8.698E-02,-1.00,-1.00,1.885E-02,1.493E-03
1979-02-26 00:15:23.900 ,1979-02-26 00:15:29.840 ,8,-1,9.23,1.56,0.249,0.249,-1.00,-1.00,2.134E-02,3.895E-03
1979-02-26 00:15:30.270 ,1979-02-26 00:15:53.840 ,7,-1,8.06,0.768,0.249,0.124,-1.00,-1.00,1.904E-02,1.930E-03
1979-02-26 00:15:54.270 ,1979-02-26 00:16:17.840 ,6,-1,9.44,0.808,0.124,8.790E-02,-1.00,-1.00,1.792E-02,1.943E-03
1979-02-26 00:16:18.270 ,1979-02-26 00:16:41.840 ,5,-1,7.98,0.765,0.497,0.176,-1.00,-1.00,2.053E-02,2.040E-03
1979-02-26 00:16:42.270 ,1979-02-26 00:17:05.840 ,4,-1,7.14,0.744,0.249,0.124,-1.00,-1.00,1.626E-02,1.817E-03
1979-02-26 00:17:06.270 ,1979-02-26 00:17:29.840 ,3,-1,6.05,0.684,0.622,0.196,-1.00,-1.00,1.972E-02,1.999E-03
1979-02-26 00:17:30.270 ,1979-02-26 00:17:53.840 ,2,-1,8.19,0.754,0.249,0.124,-1.00,-1.00,2.041E-02,1.999E-03
1979-02-26 00:17:53.900 ,1979-02-26 00:18:18.270 ,1,-1,7.72,1.21,0.166,0.117,-1.00,-1.00,1.593E-02,3.010E-03
1979-02-26 00:18:18.270 ,1979-02-26 00:18:41.840 ,1,1,7.69,0.750,0.497,0.176,-1.00,-1.00,1.951E-02,1.991E-03
1979-02-26 00:18:42.270 ,1979-02-26 00:19:05.840 ,2,1,9.62,0.863,0.186,0.108,-1.00,-1.00,1.662E-02,1.945E-03
1979-02-26 00:19:06.270 ,1979-02-26 00:19:29.840 ,3,1,8.81,0.781,0.311,0.139,-1.00,-1.00,2.093E-02,2.061E-03
1979-02-26 00:19:30.270 ,1979-02-26 00:19:53.840 ,4,1,7.63,0.728,0.373,0.152,-1.00,-1.00,2.340E-02,2.219E-03
1979-02-26 00:19:54.270 ,1979-02-26 00:20:17.840 ,5,1,9.51,0.811,0.311,0.139,-1.00,-1.00,1.786E-02,1.870E-03
1979-02-26 00:20:18.270 ,1979-02-26 00:20:41.840 ,6,1,8.57,0.840,0.435,0.164,-1.00,-1.00,2.205E-02,2.285E-03
1979-02-26 00:20:42.270 ,1979-02-26 00:21:05.840 ,7,1,9.37,0.805,0.435,0.164,-1.00,-1.00,1.809E-02,1.916E-03
1979-02-26 00:21:06.270 ,1979-02-26 00:21:47.840 ,8,1,8.87,0.595,0.355,0.112,-1.00,-1.00,1.865E-02,1.501E-03
1979-02-26 00:21:47.900 ,1979-02-26 00:21:53.840 ,8,-1,9.76,1.60,0.746,0.431,-1.00,-1.00,2.063E-02,3.829E-03
1979-02-26 00:21:54.270 ,1979-02-26 00:22:17.840 ,7,-1,7.84,0.738,0.311,0.139,-1.00,-1.00,1.813E-02,1.954E-03
1979-02-26 00:22:18.270 ,1979-02-26 00:22:41.840 ,6,-1,6.66,0.680,0.435,0.164,-1.00,-1.00,1.688E-02,1.820E-03
1979-02-26 00:22:42.270 ,1979-02-26 00:23:05.840 ,5,-1,8.74,0.779,0.435,0.164,-1.00,-1.00,1.861E-02,2.018E-03
1979-02-26 00:23:06.270 ,1979-02-26 00:23:29.840 ,4,-1,7.50,0.720,0.311,0.139,-1.00,-1.00,2.198E-02,2.074E-03
1979-02-26 00:23:30.270 ,1979-02-26 00:23:53.840 ,3,-1,8.42,0.785,0.435,0.164,-1.00,-1.00,1.789E-02,1.906E-03
1979-02-26 00:23:54.270 ,1979-02-26 00:24:17.840 ,2,-1,8.33,0.760,0.186,0.108,-1.00,-1.00,2.178E-02,2.066E-03
1979-02-26 00:24:17.900 ,1979-02-26 00:24:42.270 ,1,-1,9.89,1.47,0.414,0.185,-1.00,-1.00,2.703E-02,4.384E-03
1979-02-26 00:24:42.270 ,1979-02-26 00:25:05.840 ,1,1,9.72,0.820,0.186,0.108,-1.00,-1.00,1.845E-02,1.902E-03
1979-02-26 00:25:06.270 ,1979-02-26 00:25:29.840 ,2,1,7.56,0.725,0.249,0.124,-1.00,-1.00,1.845E-02,1.902E-03
1979-02-26 00:25:30.270 ,1979-02-26 00:25:53.840 ,3,1,8.74,0.779,0.249,0.124,-1.00,-1.00,2.002E-02,1.980E-03
1979-02-26 00:25:54.270 ,1979-02-26 00:26:17.840 ,4,1,7.63,0.728,0.435,0.164,-1.00,-1.00,2.178E-02,2.066E-03
1979-02-26 00:26:18.270 ,1979-02-26 00:26:41.840 ,5,1,8.47,0.766,0.249,0.124,-1.00,-1.00,1.904E-02,1.930E-03
1979-02-26 00:26:42.270 ,1979-02-26 00:27:05.840 ,6,1,7.50,0.720,0.435,0.164,-1.00,-1.00,1.992E-02,2.011E-03
1979-02-26 00:27:06.270 ,1979-02-26 00:27:29.840 ,7,1,8.05,0.747,0.435,0.164,-1.00,-1.00,1.825E-02,1.891E-03
1979-02-26 00:27:30.270 ,1979-02-26 00:28:11.840 ,8,1,9.11,0.602,0.426,0.123,-1.00,-1.00,1.780E-02,1.466E-03
1979-02-26 00:28:11.900 ,1979-02-26 00:28:17.840 ,8,-1,10.3,1.65,0.000E+00,0.000E+00,-1.00,-1.00,1.707E-02,3.484E-03
1979-02-26 00:28:18.270 ,1979-02-26 00:28:41.840 ,7,-1,8.95,0.788,0.435,0.164,-1.00,-1.00,2.114E-02,2.071E-03
1979-02-26 00:28:42.270 ,1979-02-26 00:29:05.840 ,6,-1,9.58,0.814,0.166,0.117,-1.00,-1.00,2.419E-02,2.215E-03
1979-02-26 00:29:06.270 ,1979-02-26 00:29:29.840 ,5,-1,6.87,0.690,0.373,0.152,-1.00,-1.00,1.707E-02,1.830E-03
1979-02-26 00:29:30.270 ,1979-02-26 00:29:53.840 ,4,-1,7.22,0.707,0.373,0.152,-1.00,-1.00,1.951E-02,1.991E-03
1979-02-26 00:29:54.270 ,1979-02-26 00:30:17.840 ,3,-1,7.11,0.721,0.373,0.152,-1.00,-1.00,1.792E-02,1.943E-03
1979-02-26 00:30:18.270 ,1979-02-26 00:30:41.840 ,2,-1,8.06,0.768,0.186,0.108,-1.00,-1.00,2.053E-02,2.040E-03
1979-02-26 00:30:41.900 ,1979-02-26 00:31:06.270 ,1,-1,10.5,1.41,0.332,0.166,-1.00,-1.00,1.771E-02,3.345E-03
1979-02-26 00:31:06.270 ,1979-02-26 00:31:29.840 ,1,1,7.98,0.743,0.311,0.139,-1.00,-1.00,1.884E-02,1.922E-03
1979-02-26 00:31:30.270 ,1979-02-26 00:31:53.840 ,2,1,7.25,0.729,0.497,0.176,-1.00,-1.00,2.061E-02,2.009E-03
1979-02-26 00:31:54.270 ,1979-02-26 00:32:17.840 ,3,1,7.56,0.725,0.124,8.790E-02,-1.00,-1.00,1.707E-02,1.830E-03
1979-02-26 00:32:18.270 ,1979-02-26 00:32:41.840 ,4,1,8.42,0.785,0.249,0.124,-1.00,-1.00,2.154E-02,2.091E-03
1979-02-26 00:32:42.270 ,1979-02-26 00:33:05.840 ,5,1,7.43,0.717,0.124,8.790E-02,-1.00,-1.00,1.728E-02,1.907E-03
1979-02-26 00:33:06.270 ,1979-02-26 00:33:29.840 ,6,1,10.3,0.844,0.000E+00,0.000E+00,-1.00,-1.00,1.911E-02,1.970E-03
1979-02-26 00:33:30.270 ,1979-02-26 00:33:53.840 ,7,1,11.0,0.872,0.373,0.152,-1.00,-1.00,1.834E-02,1.966E-03
1979-02-26 00:33:54.270 ,1979-02-26 00:34:35.840 ,8,1,8.79,0.592,0.497,0.133,-1.00,-1.00,2.117E-02,1.551E-03
1979-02-26 00:34:35.900 ,1979-02-26 00:34:41.840 ,8,-1,8.70,1.51,0.995,0.497,-1.00,-1.00,2.063E-02,3.829E-03
1979-02-26 00:34:42.270 ,1979-02-26 00:35:05.840 ,7,-1,9.16,0.797,0.186,0.108,-1.00,-1.00,1.749E-02,1.919E-03
1979-02-26 00:35:06.270 ,1979-02-26 00:35:29.840 ,6,-1,8.95,0.788,0.435,0.164,-1.00,-1.00,1.992E-02,2.011E-03
1979-02-26 00:35:30.270 ,1979-02-26 00:35:53.840 ,5,-1,7.84,0.738,0.311,0.139,-1.00,-1.00,2.175E-02,2.100E-03
1979-02-26 00:35:54.270 ,1979-02-26 00:36:17.840 ,4,-1,8.33,0.760,0.249,0.124,-1.00,-1.00,1.951E-02,1.991E-03
1979-02-26 00:36:18.270 ,1979-02-26 00:36:41.840 ,3,-1,8.54,0.770,0.186,0.108,-1.00,-1.00,1.890E-02,1.958E-03
1979-02-26 00:36:42.270 ,1979-02-26 00:37:05.840 ,2,-1,8.50,0.789,0.124,8.790E-02,-1.00,-1.00,1.904E-02,1.930E-03
1979-02-26 00:37:05.900 ,1979-02-26 00:37:30.270 ,1,-1,7.91,1.22,0.497,0.203,-1.00,-1.00,1.935E-02,3.317E-03
1979-02-26 00:37:30.270 ,1979-02-26 00:37:53.840 ,1,1,8.12,0.750,0.373,0.152,-1.00,-1.00,2.375E-02,2.156E-03
1979-02-26 00:37:54.270 ,1979-02-26 00:38:17.840 ,2,1,8.81,0.781,0.249,0.124,-1.00,-1.00,2.033E-02,2.033E-03
1979-02-26 00:38:18.270 ,1979-02-26 00:38:41.840 ,3,1,8.26,0.756,0.373,0.152,-1.00,-1.00,2.236E-02,2.131E-03
1979-02-26 00:38:42.270 ,1979-02-26 00:39:05.840 ,4,1,8.12,0.750,0.249,0.124,-1.00,-1.00,1.768E-02,1.895E-03
1979-02-26 00:39:06.270 ,1979-02-26 00:39:29.840 ,5,1,8.47,0.766,0.186,0.108,-1.00,-1.00,2.061E-02,2.009E-03
1979-02-26 00:39:30.270 ,1979-02-26 00:39:53.840 ,6,1,8.79,0.802,0.435,0.164,-1.00,-1.00,2.154E-02,2.091E-03
1979-02-26 00:39:54.270 ,1979-02-26 00:40:17.840 ,7,1,8.68,0.775,0.186,0.108,-1.00,-1.00,2.134E-02,2.081E-03
1979-02-26 00:40:18.270 ,1979-02-26 00:40:59.840 ,8,1,8.55,0.584,0.391,0.118,-1.00,-1.00,2.117E-02,1.551E-03
1979-02-26 00:40:59.900 ,1979-02-26 00:41:05.840 ,8,-1,5.80,1.24,0.497,0.352,-1.00,-1.00,2.134E-02,3.895E-03
1979-02-26 00:41:06.270 ,1979-02-26 00:41:29.840 ,7,-1,7.98,0.743,0.124,8.790E-02,-1.00,-1.00,1.890E-02,1.958E-03
1979-02-26 00:41:30.270 ,1979-02-26 00:41:53.840 ,6,-1,9.92,0.830,6.216E-02,6.216E-02,-1.00,-1.00,1.972E-02,1.999E-03
1979-02-26 00:41:54.270 ,1979-02-26 00:42:17.840 ,5,-1,8.26,0.756,0.414,0.185,-1.00,-1.00,1.570E-02,1.754E-03
1979-02-26 00:42:18.270 ,1979-02-26 00:42:41.840 ,4,-1,7.36,0.714,0.373,0.152,-1.00,-1.00,1.884E-02,1.922E-03
1979-02-26 00:42:42.270 ,1979-02-26 00:43:05.840 ,3,-1,7.70,0.731,0.249,0.124,-1.00,-1.00,1.992E-02,2.011E-03
1979-02-26 00:43:06.270 ,1979-02-26 00:43:29.840 ,2,-1,12.6,0.986,0.311,0.139,-1.00,-1.00,1.443E-02,1.711E-03
1979-02-26 00:43:29.900 ,1979-02-26 00:43:54.270 ,1,-1,11.0,1.55,0.249,0.144,-1.00,-1.00,2.340E-02,3.846E-03
1979-02-26 00:43:54.270 ,1979-02-26 00:44:17.840 ,1,1,6.73,0.683,0.124,8.790E-02,-1.00,-1.00,1.845E-02,1.902E-03
1979-02-26 00:44:18.270 ,1979-02-26 00:44:41.840 ,2,1,11.6,0.949,0.186,0.108,-1.00,-1.00,3.108E-02,2.608E-03
1979-02-26 00:44:42.270 ,1979-02-26 00:45:05.840 ,3,1,13.1,1.01,0.186,0.108,-1.00,-1.00,1.541E-02,1.910E-03
1979-02-26 00:45:06.650 ,1979-02-26 00:45:29.840 ,4,1,10.2,0.917,0.311,0.139,-1.00,-1.00,3.541E-02,2.728E-03
1979-02-26 00:45:30.270 ,1979-02-26 00:45:53.840 ,5,1,11.8,0.956,0.249,0.124,-1.00,-1.00,1.518E-02,1.788E-03
1979-02-26 00:45:54.270 ,1979-02-26 00:46:17.840 ,6,1,12.4,0.979,0.249,0.124,-1.00,-1.00,3.577E-02,2.694E-03
1979-02-26 00:46:18.270 ,1979-02-26 00:46:41.840 ,7,1,13.5,1.02,0.311,0.139,-1.00,-1.00,1.748E-02,1.885E-03
1979-02-26 00:46:42.270 ,1979-02-26 00:47:23.840 ,8,1,12.9,0.753,0.284,0.100,-1.00,-1.00,1.792E-02,1.473E-03
1979-02-26 00:47:23.900 ,1979-02-26 00:47:29.840 ,8,-1,11.9,1.98,0.000E+00,0.000E+00,-1.00,-1.00,1.220E-02,3.148E-03
1979-02-26 00:47:30.270 ,1979-02-26 00:47:53.840 ,7,-1,15.5,1.07,0.373,0.152,-1.00,-1.00,3.436E-02,2.690E-03
1979-02-26 00:47:54.270 ,1979-02-26 00:48:17.840 ,6,-1,12.9,0.998,0.186,0.108,-1.00,-1.00,1.687E-02,1.850E-03
1979-02-26 00:48:18.270 ,1979-02-26 00:48:41.840 ,5,-1,12.8,0.996,0.124,8.790E-02,-1.00,-1.00,3.073E-02,2.641E-03
1979-02-26 00:48:42.270 ,1979-02-26 00:49:05.840 ,4,-1,11.8,0.956,0.497,0.176,-1.00,-1.00,1.623E-02,1.849E-03
1979-02-26 00:49:06.270 ,1979-02-26 00:49:29.840 ,3,-1,13.0,1.00,0.186,0.108,-1.00,-1.00,3.455E-02,2.645E-03
1979-02-26 00:49:30.270 ,1979-02-26 00:49:53.840 ,2,-1,7.18,0.725,0.497,0.176,-1.00,-1.00,1.539E-02,1.801E-03
1979-02-26 00:49:53.900 ,1979-02-26 00:50:18.270 ,1,-1,7.16,1.16,0.249,0.144,-1.00,-1.00,1.897E-02,3.462E-03
1979-02-26 00:50:18.270 ,1979-02-26 00:50:41.840 ,1,1,12.7,0.992,0.373,0.152,-1.00,-1.00,1.776E-02,2.009E-03
1979-02-26 00:50:42.270 ,1979-02-26 00:51:05.840 ,2,1,13.6,1.06,0.497,0.176,-1.00,-1.00,3.537E-02,2.680E-03
1979-02-26 00:51:06.270 ,1979-02-26 00:51:29.840 ,3,1,12.6,0.990,0.373,0.152,-1.00,-1.00,1.771E-02,1.931E-03
1979-02-26 00:51:30.270 ,1979-02-26 00:51:53.840 ,4,1,12.1,0.968,0.249,0.124,-1.00,-1.00,3.435E-02,2.641E-03
1979-02-26 00:51:54.270 ,1979-02-26 00:52:17.840 ,5,1,11.6,0.946,0.497,0.176,-1.00,-1.00,1.576E-02,1.857E-03
1979-02-26 00:52:18.270 ,1979-02-26 00:52:41.840 ,6,1,8.72,0.798,0.124,8.790E-02,-1.00,-1.00,3.773E-02,2.818E-03
1979-02-26 00:52:42.270 ,1979-02-26 00:53:05.840 ,7,1,9.44,0.808,0.186,0.108,-1.00,-1.00,1.728E-02,1.907E-03
1979-02-26 00:53:06.270 ,1979-02-26 00:53:47.840 ,8,1,6.95,0.527,0.426,0.123,-1.00,-1.00,2.680E-02,1.779E-03
1979-02-26 00:53:47.900 ,1979-02-26 00:53:53.840 ,8,-1,9.23,1.74,0.497,0.352,-1.00,-1.00,2.063E-02,3.829E-03
1979-02-26 00:53:54.270 ,1979-02-26 00:54:17.840 ,7,-1,9.16,0.818,0.497,0.176,-1.00,-1.00,2.802E-02,2.473E-03
1979-02-26 00:54:18.270 ,1979-02-26 00:54:41.840 ,6,-1,7.08,0.700,0.249,0.124,-1.00,-1.00,2.036E-02,2.109E-03
1979-02-26 00:54:42.270 ,1979-02-26 00:55:05.840 ,5,-1,12.2,0.970,0.373,0.152,-1.00,-1.00,3.211E-02,2.554E-03
1979-02-26 00:55:06.270 ,1979-02-26 00:55:29.840 ,4,-1,6.25,0.658,0.311,0.139,-1.00,-1.00,1.644E-02,1.860E-03
1979-02-26 00:55:30.270 ,1979-02-26 00:55:53.840 ,3,-1,6.83,0.727,0.311,0.139,-1.00,-1.00,3.499E-02,2.712E-03
1979-02-26 00:55:54.270 ,1979-02-26 00:56:17.840 ,2,-1,7.50,0.720,0.373,0.152,-1.00,-1.00,1.825E-02,1.891E-03
1979-02-26 00:56:17.900 ,1979-02-26 00:56:42.270 ,1,-1,9.04,1.30,0.332,0.166,-1.00,-1.00,1.850E-02,3.627E-03
1979-02-26 00:56:42.270 ,1979-02-26 00:57:05.840 ,1,1,7.84,0.757,0.435,0.164,-1.00,-1.00,1.644E-02,1.860E-03
1979-02-26 00:57:06.270 ,1979-02-26 00:57:29.840 ,2,1,7.70,0.731,0.684,0.206,-1.00,-1.00,3.618E-02,2.708E-03
1979-02-26 00:57:30.270 ,1979-02-26 00:57:53.840 ,3,1,12.1,0.968,6.216E-02,6.216E-02,-1.00,-1.00,1.570E-02,1.754E-03
1979-02-26 00:57:54.270 ,1979-02-26 00:58:17.840 ,4,1,12.5,0.983,0.373,0.152,-1.00,-1.00,3.267E-02,2.624E-03
1979-02-26 00:58:18.270 ,1979-02-26 00:58:41.840 ,5,1,11.8,0.956,0.186,0.108,-1.00,-1.00,1.518E-02,1.788E-03
1979-02-26 00:58:42.270 ,1979-02-26 00:59:05.840 ,6,1,12.2,1.00,0.249,0.124,-1.00,-1.00,3.731E-02,2.804E-03
1979-02-26 00:59:06.270 ,1979-02-26 00:59:29.840 ,7,1,13.3,1.02,0.186,0.108,-1.00,-1.00,1.972E-02,1.999E-03
1979-02-26 00:59:30.270 ,1979-02-26 00:00:11.840 ,8,1,9.23,0.636,0.426,0.123,-1.00,-1.00,2.228E-02,1.640E-03
1979-02-26 01:00:11.900 ,1979-02-26 01:00:17.840 ,8,-1,11.5,1.95,0.000E+00,0.000E+00,-1.00,-1.00,1.707E-02,3.724E-03
1979-02-26 01:00:18.270 ,1979-02-26 01:00:41.840 ,7,-1,8.50,0.789,0.249,0.124,-1.00,-1.00,3.557E-02,2.684E-03
1979-02-26 01:00:42.280 ,1979-02-26 01:01:05.840 ,6,-1,7.01,0.697,0.435,0.164,-1.00,-1.00,1.585E-02,1.793E-03
1979-02-26 01:01:06.280 ,1979-02-26 01:01:29.840 ,5,-1,7.55,0.743,0.559,0.186,-1.00,-1.00,3.699E-02,2.844E-03
1979-02-26 01:01:30.280 ,1979-02-26 01:01:53.840 ,4,-1,11.6,0.946,0.249,0.124,-1.00,-1.00,1.864E-02,1.911E-03
1979-02-26 01:01:54.280 ,1979-02-26 01:02:17.840 ,3,-1,6.18,0.654,0.311,0.139,-1.00,-1.00,4.024E-02,2.855E-03
1979-02-26 01:02:18.270 ,1979-02-26 01:02:41.840 ,2,-1,7.70,0.731,0.311,0.139,-1.00,-1.00,2.021E-02,1.990E-03
1979-02-26 01:02:41.900 ,1979-02-26 01:03:06.270 ,1,-1,14.5,1.65,0.249,0.144,-1.00,-1.00,1.960E-02,3.519E-03
1979-02-26 01:03:06.270 ,1979-02-26 01:03:29.840 ,1,1,12.2,0.970,0.497,0.176,-1.00,-1.00,2.114E-02,2.071E-03
1979-02-26 01:03:30.270 ,1979-02-26 01:03:53.840 ,2,1,12.6,0.990,0.435,0.164,-1.00,-1.00,3.638E-02,2.717E-03
1979-02-26 01:03:54.270 ,1979-02-26 01:04:17.840 ,3,1,12.7,0.992,0.249,0.124,-1.00,-1.00,1.585E-02,1.793E-03
1979-02-26 01:04:18.270 ,1979-02-26 01:04:41.840 ,4,1,12.9,0.998,0.497,0.176,-1.00,-1.00,3.435E-02,2.641E-03
1979-02-26 01:04:42.270 ,1979-02-26 01:05:05.840 ,5,1,12.1,0.968,0.249,0.124,-1.00,-1.00,1.433E-02,1.677E-03
1979-02-26 01:05:06.270 ,1979-02-26 01:05:29.840 ,6,1,8.47,0.766,0.497,0.176,-1.00,-1.00,3.354E-02,2.610E-03
1979-02-26 01:05:30.270 ,1979-02-26 01:05:53.840 ,7,1,7.66,0.794,0.249,0.124,-1.00,-1.00,1.870E-02,1.949E-03
1979-02-26 01:05:54.270 ,1979-02-26 01:06:35.840 ,8,1,8.31,0.575,0.355,0.112,-1.00,-1.00,2.741E-02,1.782E-03
1979-02-26 01:06:35.900 ,1979-02-26 01:06:41.840 ,8,-1,10.9,1.89,0.000E+00,0.000E+00,-1.00,-1.00,1.636E-02,3.410E-03
1979-02-26 01:06:42.270 ,1979-02-26 01:07:05.840 ,7,-1,7.45,0.760,0.249,0.124,-1.00,-1.00,3.689E-02,2.784E-03
1979-02-26 01:07:06.270 ,1979-02-26 01:07:29.840 ,6,-1,8.61,0.772,0.684,0.206,-1.00,-1.00,1.445E-02,1.776E-03
1979-02-26 01:07:30.270 ,1979-02-26 01:07:53.840 ,5,-1,8.22,0.798,0.373,0.152,-1.00,-1.00,3.415E-02,2.678E-03
1979-02-26 01:07:54.270 ,1979-02-26 01:08:17.840 ,4,-1,12.9,1.03,0.186,0.108,-1.00,-1.00,1.646E-02,1.829E-03
1979-02-26 01:08:18.270 ,1979-02-26 01:08:41.840 ,3,-1,12.9,1.03,0.559,0.186,-1.00,-1.00,3.896E-02,2.916E-03
1979-02-26 01:08:42.280 ,1979-02-26 01:09:05.840 ,2,-1,7.15,0.704,0.249,0.124,-1.00,-1.00,1.454E-02,1.750E-03
1979-02-26 01:09:05.900 ,1979-02-26 01:09:30.280 ,1,-1,6.59,1.32,0.663,0.234,-1.00,-1.00,2.213E-02,3.738E-03
1979-02-26 01:09:30.280 ,1979-02-26 01:09:53.840 ,1,1,7.99,0.786,0.186,0.108,-1.00,-1.00,1.786E-02,1.870E-03
1979-02-26 01:09:54.280 ,1979-02-26 01:10:17.840 ,2,1,13.1,1.04,0.249,0.124,-1.00,-1.00,3.618E-02,2.708E-03
1979-02-26 01:10:18.280 ,1979-02-26 01:10:41.840 ,3,1,9.09,0.794,0.249,0.124,-1.00,-1.00,1.598E-02,1.870E-03
1979-02-26 01:10:42.280 ,1979-02-26 01:11:05.840 ,4,1,5.49,0.634,0.497,0.176,-1.00,-1.00,3.478E-02,2.706E-03
1979-02-26 01:11:06.280 ,1979-02-26 01:11:29.840 ,5,1,13.6,1.06,0.373,0.152,-1.00,-1.00,1.576E-02,1.857E-03
1979-02-26 01:11:30.280 ,1979-02-26 01:11:53.840 ,6,1,11.5,0.970,0.311,0.139,-1.00,-1.00,3.272E-02,2.577E-03
1979-02-26 01:11:54.280 ,1979-02-26 01:12:17.840 ,7,1,13.8,1.03,0.311,0.139,-1.00,-1.00,1.341E-02,1.650E-03
1979-02-26 01:12:18.280 ,1979-02-26 01:12:59.840 ,8,1,9.95,0.650,0.284,0.100,-1.00,-1.00,2.289E-02,1.681E-03
1979-02-26 01:12:59.900 ,1979-02-26 01:13:05.840 ,8,-1,7.65,1.42,0.497,0.352,-1.00,-1.00,3.343E-02,4.874E-03
1979-02-26 01:13:06.280 ,1979-02-26 01:13:29.840 ,7,-1,9.02,0.791,0.435,0.164,-1.00,-1.00,1.729E-02,1.945E-03
1979-02-26 01:13:30.280 ,1979-02-26 01:13:53.840 ,6,-1,12.2,0.970,0.373,0.152,-1.00,-1.00,3.710E-02,2.794E-03
1979-02-26 01:13:54.280 ,1979-02-26 01:14:17.840 ,5,-1,7.36,0.714,0.311,0.139,-1.00,-1.00,1.366E-02,1.763E-03
1979-02-26 01:14:18.280 ,1979-02-26 01:14:41.840 ,4,-1,7.60,0.767,0.249,0.124,-1.00,-1.00,3.191E-02,2.543E-03
1979-02-26 01:14:42.280 ,1979-02-26 01:15:05.840 ,3,-1,11.5,0.943,0.124,8.790E-02,-1.00,-1.00,1.475E-02,1.761E-03
1979-02-26 01:15:06.280 ,1979-02-26 01:15:29.840 ,2,-1,12.4,0.979,0.249,0.124,-1.00,-1.00,3.393E-02,2.725E-03
1979-02-26 01:15:29.900 ,1979-02-26 01:15:54.280 ,1,-1,6.07,1.26,0.414,0.185,-1.00,-1.00,2.049E-02,3.412E-03
1979-02-26 01:15:54.280 ,1979-02-26 01:16:17.840 ,1,1,8.33,0.760,0.186,0.108,-1.00,-1.00,3.740E-02,2.752E-03
1979-02-26 01:16:18.280 ,1979-02-26 01:16:41.840 ,2,1,7.77,0.734,0.186,0.108,-1.00,-1.00,1.766E-02,1.860E-03
1979-02-26 01:16:42.280 ,1979-02-26 01:17:05.840 ,3,1,8.06,0.768,0.373,0.152,-1.00,-1.00,3.740E-02,2.752E-03
1979-02-26 01:17:06.280 ,1979-02-26 01:17:29.840 ,4,1,12.7,0.992,0.186,0.108,-1.00,-1.00,1.602E-02,1.837E-03
1979-02-26 01:17:30.280 ,1979-02-26 01:17:53.840 ,5,1,12.3,0.977,0.186,0.108,-1.00,-1.00,3.110E-02,2.512E-03
1979-02-26 01:17:54.280 ,1979-02-26 01:18:17.840 ,6,1,12.0,0.966,0.311,0.139,-1.00,-1.00,1.598E-02,1.870E-03
1979-02-26 01:18:18.280 ,1979-02-26 01:18:41.840 ,7,1,8.68,0.775,0.249,0.124,-1.00,-1.00,3.371E-02,2.712E-03
1979-02-26 01:18:42.280 ,1979-02-26 01:19:23.840 ,8,1,8.57,0.593,0.284,0.100,-1.00,-1.00,2.264E-02,1.673E-03
1979-02-26 01:19:23.900 ,1979-02-26 01:19:29.840 ,8,-1,14.2,2.16,0.497,0.352,-1.00,-1.00,4.065E-02,5.748E-03
1979-02-26 01:19:30.280 ,1979-02-26 01:19:53.840 ,7,-1,13.5,1.02,0.311,0.139,-1.00,-1.00,1.972E-02,1.999E-03
1979-02-26 01:19:54.280 ,1979-02-26 01:20:11.840 ,6,-1,11.9,1.10,0.332,0.166,-1.00,-1.00,3.604E-02,3.120E-03
1979-02-26 01:20:11.900 ,1979-02-26 01:20:35.900 ,9,0,10.7,0.860,0.249,0.111,0.000E+00,0.000E+00,2.237E-02,2.094E-03
1979-02-26 01:20:35.900 ,1979-02-26 01:20:41.840 ,5,-1,12.5,2.03,0.746,0.431,-1.00,-1.00,2.276E-02,4.300E-03
1979-02-26 01:20:42.280 ,1979-02-26 01:21:05.840 ,4,-1,11.0,0.952,0.311,0.139,-1.00,-1.00,3.583E-02,2.743E-03
1979-02-26 01:21:06.280 ,1979-02-26 01:21:29.840 ,3,-1,12.2,0.970,0.124,8.790E-02,-1.00,-1.00,1.668E-02,1.809E-03
1979-02-26 01:21:30.280 ,1979-02-26 01:21:53.840 ,2,-1,7.63,0.728,0.373,0.152,-1.00,-1.00,3.496E-02,2.660E-03
1979-02-26 01:21:53.900 ,1979-02-26 01:22:18.280 ,1,-1,6.22,1.08,0.166,0.117,-1.00,-1.00,1.423E-02,2.846E-03
1979-02-26 01:22:18.280 ,1979-02-26 01:22:41.840 ,1,1,9.45,0.831,0.373,0.152,-1.00,-1.00,3.668E-02,2.779E-03
1979-02-26 01:22:42.280 ,1979-02-26 01:23:05.840 ,2,1,7.18,0.725,0.311,0.139,-1.00,-1.00,1.510E-02,1.817E-03
1979-02-26 01:23:06.280 ,1979-02-26 01:23:29.840 ,3,1,5.27,0.640,0.435,0.164,-1.00,-1.00,2.891E-02,2.561E-03
1979-02-26 01:23:30.280 ,1979-02-26 01:23:53.840 ,4,1,10.2,0.891,0.497,0.176,-1.00,-1.00,1.876E-02,1.987E-03
1979-02-26 01:23:54.280 ,1979-02-26 01:24:17.840 ,5,1,13.2,1.01,0.124,8.790E-02,-1.00,-1.00,3.577E-02,2.694E-03
1979-02-26 01:24:18.280 ,1979-02-26 01:24:41.840 ,6,1,13.4,1.05,0.622,0.196,-1.00,-1.00,1.565E-02,1.783E-03
1979-02-26 01:24:42.280 ,1979-02-26 01:25:05.840 ,7,1,12.1,0.968,0.373,0.152,-1.00,-1.00,3.743E-02,2.860E-03
1979-02-26 01:25:06.280 ,1979-02-26 01:25:47.840 ,8,1,12.5,0.742,0.249,9.394E-02,-1.00,-1.00,2.549E-02,1.737E-03
1979-02-26 01:25:47.900 ,1979-02-26 01:25:53.840 ,8,-1,15.2,2.23,0.497,0.352,-1.00,-1.00,3.252E-02,5.137E-03